Chillicothe, MO

4:11 PM CDT on September 22, 2019 (GMT -0500)
Chillicothe

Weather History for KCDJ - July, 2019

Change the Weather History Date:

Tuesday, July 23, 2019

  Actual Average (KIRK) Record (KIRK)
Temperature  
Mean Temperature 72 °F -  
Max Temperature 82 °F 86 °F 108 °F (1934)
Min Temperature 61 °F 64 °F 51 °F (1947)
Cooling Degree Days 6    
Growing Degree Days 22 (Base 50)    
Moisture  
Dew Point 58 °F    
Average Humidity 66    
Maximum Humidity 96    
Minimum Humidity 41    
Precipitation  
Precipitation 0.00 in - - ()
Sea Level Pressure  
Sea Level Pressure 30.20 in    
Wind  
Wind Speed 4 mph (North)    
Max Wind Speed 9 mph    
Max Gust Speed -    
Averages and records for this station are not official NWS values.
T = Trace of Precipitation, MM = Missing Value Source: NWS Daily Summary

Daily Weather History Graph

Daily Weather History Graph

Search for Another Location

Airport or City:

Astronomy

Jul. 23, 2019 Rise Set
Actual Time 6:04 AM CDT 8:36 PM CDT
Civil Twilight 5:33 AM CDT 9:07 PM CDT
Nautical Twilight 4:55 AM CDT 9:45 PM CDT
Astronomical Twilight 4:12 AM CDT 10:28 PM CDT
Moon No Moon Rise 12:18 PM CDT (7/23)
Length of Visible Light 15h 33m
Length of Day
14h 31m
Waning Gibbous, 63% of the Moon is Illuminated
Jul 23
Waning Gibbous
Jul 24
Last Quarter
Jul 31
New
Aug 7
First Quarter
Aug 15
Full

Hourly Weather History & Observations

Time (CDT) Temp. Heat Index Dew Point Humidity Pressure Visibility Wind Dir Wind Speed Gust Speed Precip Events Conditions
12:52 AM 66.0 °F - 57.0 °F 73% 30.19 in - North 5.8 mph - N/A   Unknown
1:52 AM 64.9 °F - 57.0 °F 75% 30.20 in - Variable 4.6 mph - N/A   Unknown
2:52 AM 63.0 °F - 57.0 °F 81% 30.20 in - North 3.5 mph - N/A   Unknown
3:52 AM 63.0 °F - 57.9 °F 84% 30.21 in - Variable 4.6 mph - N/A   Unknown
4:52 AM 62.1 °F - 57.0 °F 84% 30.22 in - North 3.5 mph - N/A   Unknown
5:52 AM 61.0 °F - 57.0 °F 87% 30.22 in - North 4.6 mph - N/A   Unknown
6:52 AM 61.0 °F - 57.0 °F 87% 30.24 in - Calm Calm - N/A   Unknown
7:52 AM 64.9 °F - 57.0 °F 75% 30.25 in - Variable 3.5 mph - N/A   Unknown
8:52 AM 69.1 °F - 57.9 °F 68% 30.26 in - North 5.8 mph - N/A   Unknown
9:52 AM 73.9 °F - 59.0 °F 59% 30.25 in - Variable 4.6 mph - N/A   Unknown
10:52 AM 75.9 °F - 55.9 °F 50% 30.24 in - Variable 5.8 mph - N/A   Unknown
11:52 AM 77.0 °F - 57.0 °F 50% 30.23 in - NNE 8.1 mph - N/A   Unknown
12:52 PM 79.0 °F - 55.9 °F 45% 30.22 in - North - - N/A   Unknown
1:52 PM 78.1 °F - 55.0 °F 45% 30.21 in - North 5.8 mph - N/A   Unknown
2:52 PM 81.0 °F 80.8 °F 55.9 °F 42% 30.20 in - NNE 9.2 mph - N/A   Unknown
3:52 PM 82.0 °F 82.0 °F 57.9 °F 44% 30.18 in - Variable 5.8 mph - N/A   Unknown
4:52 PM 82.9 °F 82.6 °F 57.9 °F 42% 30.17 in - NNE 8.1 mph - N/A   Unknown
5:52 PM 82.0 °F 81.6 °F 55.9 °F 41% 30.16 in - NNW 3.5 mph - N/A   Unknown
6:52 PM 81.0 °F 81.0 °F 57.0 °F 44% 30.15 in - NNE 4.6 mph - N/A   Unknown
7:52 PM 77.0 °F - 60.1 °F 56% 30.15 in - Calm Calm - N/A   Unknown
8:52 PM 71.1 °F - 64.9 °F 81% 30.17 in - Calm Calm - N/A   Unknown
9:52 PM 66.9 °F - 64.9 °F 93% 30.17 in - Calm Calm - N/A   Unknown
10:52 PM 64.9 °F - 63.0 °F 93% 30.18 in - Calm Calm - N/A   Unknown
11:52 PM 64.0 °F - 63.0 °F 96% 30.18 in - Calm Calm - N/A   Unknown